Regional Weather Roundup
Issued by NWS

Home | Current Version | Previous Version | Text Only | Print | Product List | Glossary On
Versions: 1 2 3 4 5 6 7 8 9 10 11 12 13 14 15 16 17 18 19 20 21 22 23 24 25 26 27 28 29 30 31 32 33 34 35 36 37 38 39 40 41 42 43 44 45 46 47 48 49 50
288
ASUS45 KCYS 251310
RWRWY

WYOMING REGIONAL WEATHER ROUNDUP
NATIONAL WEATHER SERVICE CHEYENNE WY
600 AM MST SUN FEB 25 2018

NOTE:  "FAIR" INDICATES FEW OR NO CLOUDS BELOW 12,000 FEET
WITH NO SIGNIFICANT WEATHER AND/OR OBSTRUCTIONS TO VISIBILITY.

WYZ001-251400-
YELLOWSTONE NATIONAL PARK

CITY           SKY/WX    TMP DP  RH WIND       PRES   REMARKS
LK YELLOWSTONE   N/A      4  -1  80 VRB5      29.76R WCI  -5
W YELLOWSTONE  NOT AVBL

$$
WYZ002>013-054>058-071-098>099-251400-
NORTHERN WYOMING

CITY           SKY/WX    TMP DP  RH WIND       PRES   REMARKS
JACKSON        CLOUDY    16   9  73 S16       29.85R WCI   0
CODY           FAIR      24   5  44 W16G23    29.72S WCI  11
GREYBULL       FAIR      -6  -9  86 N3        29.79S
WORLAND        FAIR      -2  -5  87 S8        29.78F WCI -17
SHERIDAN       CLOUDY    18   7  62 CALM      29.71F
BUFFALO        FAIR      19   2  47 S7        29.69F WCI  10
GILLETTE       FAIR       9   1  70 SW10      29.72S WCI  -5
HULETT         FAIR      19   9  63 MISG      29.72S
NEWCASTLE      FAIR       3  -4  72 CALM      29.78R

$$
WYZ014>020-022>026-101>103-251400-
CENTRAL WYOMING

CITY           SKY/WX    TMP DP  RH WIND       PRES   REMARKS
BIG PINEY      MOCLDY    -9 -13  83 E5        29.87R WCI -20
PINEDALE       FAIR      -9 -15  77 W5        29.88R WCI -21
DUBOIS           N/A    N/A N/A N/A MISG        N/A
LANDER         FAIR      12  -3  51 W6        29.77R WCI   3
RIVERTON       FAIR       8  -4  58 W6        29.78R WCI  -2
CASPER         FAIR      13   4  67 SW20      29.77S WCI  -5
DOUGLAS        FAIR      15   5  64 NW5       29.77R WCI   8

$$
WYZ021-027>030-104>119-251400-
SOUTHERN WYOMING

CITY           SKY/WX    TMP DP  RH WIND       PRES   REMARKS
EVANSTON       FAIR      11   8  88 SW18      29.95R WCI  -7
ROCK SPRINGS   FAIR      12   7  80 W24       29.89R WCI  -8
DIXON          CLOUDY    14  10  81 SW7       29.94R WCI   4
RAWLINS        FAIR      10   4  76 SW24      29.84R WCI -10
SARATOGA       FAIR      14   5  67 W22G28    29.83R WCI  -4
LARAMIE        FAIR      10   3  73 W16       29.76R WCI  -7
CHEYENNE       FAIR      19   4  51 W29G40    29.74F WCI   0
TORRINGTON     FAIR      25  12  58 W5        29.80R WCI  19
PINE BLUFFS    FAIR      12   1  62 SW6       29.82R WCI   3

$$




USA.gov is the U.S. government's official web portal to all federal, state and local government web resources and services.